Simultaneous Nadir Overpasses (SNOs) Predictions

Prediction of SNOs between GOES-16 and LANDSAT-8 Satellite Orbit:

Table of predicted SNOs for the next 14.0 days since TLE Epoch: 6/25/2022
Index Date Time (GOES-16) GOES-16 Lat,Lon LANDSAT-8 Lat,Lon Distance(km) Time Diff (sec)
1 06/25/2022 15:09:24 0.02, -75.21 -0.26, -73.94 144.42 80
2 06/26/2022 03:28:07 -0.02, -75.19 -0.86, -79.13 447.21 80
3 06/27/2022 14:57:13 0.02, -75.21 -0.89, -70.98 481.47 80
4 06/28/2022 03:15:56 -0.02, -75.20 -0.24, -76.17 110.06 80
5 06/30/2022 03:03:46 -0.02, -75.21 0.40, -73.21 227.50 80
6 06/30/2022 15:25:01 0.02, -75.23 0.67, -78.37 356.99 80
7 07/02/2022 15:12:50 0.02, -75.25 0.03, -75.42 18.99 80
8 07/04/2022 15:03:18 0.02, -75.27 -0.56, -72.45 320.33 80
9 07/05/2022 03:24:42 -0.02, -75.26 -0.55, -77.64 270.55 80
10 07/07/2022 03:09:51 -0.01, -75.29 0.11, -74.68 69.26 80
